Location: Kaarina
(60.4167°N, 22.4167°E)
Time: 05:16:11
(UTC+03:00)

SPOT 5 - Pass Details

Date: 24 August 2019
Orbit: 624 x 814 km, 98.3° (Epoch: 23 October)

Event Time Altitude Azimuth Distance (km) Brightness Sun altitude
Exits shadow 22:07:15 10° 140° (SE) 2,034 4.6 -7.9°
Reaches altitude 10° 22:07:20 10° 140° (SE) 2,001 4.5 -7.9°
Maximum altitude 22:11:33 53° 64° (ENE) 788 3.0 -8.3°
Drops below altitude 10° 22:15:52 10° 348° (NNW) 2,060 6.1 -8.7°
Sets 22:18:10 0° 344° (NNW) 2,997 7.2 -8.9°
